| time (UTC) | temp F | wind direction | speed MPH | gust MPH | rain 1hr in | rain 24hr in | rain mn in | humidity % | barometer mb |
| 20260903230534 | 92 | 121 | 5.0 | 14.0 | 0.00 | 0.00 | 0.00 | 65 | 1010.2 |
| 20260903230043 | 92 | 119 | 6.0 | 16.0 | 0.00 | 0.00 | 0.00 | 64 | 1010.1 |
| 20260903225502 | 93 | 124 | 8.0 | 16.0 | 0.00 | 0.00 | 0.00 | 63 | 1010.0 |
| 20260903225043 | 93 | 113 | 3.0 | 13.0 | 0.00 | 0.00 | 0.00 | 62 | 1009.8 |
| 20260903224532 | 93 | 58 | 4.0 | 13.0 | 0.00 | 0.00 | 0.00 | 61 | 1009.9 |
| 20260903224008 | 93 | 128 | 4.0 | 17.0 | 0.00 | 0.00 | 0.00 | 61 | 1009.8 |
| 20260903223550 | 93 | 129 | 7.0 | 17.0 | 0.00 | 0.00 | 0.00 | 60 | 1009.8 |
| 20260903223040 | 94 | 103 | 5.0 | 14.0 | 0.00 | 0.00 | 0.00 | 59 | 1009.8 |
| 20260903222516 | 94 | 137 | 6.0 | 18.0 | 0.00 | 0.00 | 0.00 | 58 | 1009.9 |
| 20260903222057 | 94 | 140 | 5.0 | 15.0 | 0.00 | 0.00 | 0.00 | 59 | 1009.8 |
| 20260903221547 | 95 | 101 | 5.0 | 12.0 | 0.00 | 0.00 | 0.00 | 57 | 1009.8 |
| 20260903221026 | 95 | 145 | 5.0 | 13.0 | 0.00 | 0.00 | 0.00 | 57 | 1009.8 |
| 20260903220604 | 95 | 136 | 5.0 | 13.0 | 0.00 | 0.00 | 0.00 | 57 | 1009.8 |
| 20260903220105 | 95 | 119 | 5.0 | 11.0 | 0.00 | 0.00 | 0.00 | 56 | 1009.8 |
| 20260903215531 | 94 | 120 | 4.0 | 14.0 | 0.00 | 0.00 | 0.00 | 57 | 1009.8 |
| 20260903215006 | 94 | 117 | 6.0 | 15.0 | 0.00 | 0.00 | 0.00 | 56 | 1009.8 |
| 20260903214602 | 93 | 59 | 4.0 | 15.0 | 0.00 | 0.00 | 0.00 | 56 | 1009.7 |
| 20260903214038 | 93 | 155 | 4.0 | 10.0 | 0.00 | 0.00 | 0.00 | 56 | 1009.8 |
| 20260903213517 | 93 | 80 | 4.0 | 12.0 | 0.00 | 0.00 | 0.00 | 56 | 1009.9 |
| 20260903213001 | 93 | 130 | 4.0 | 13.0 | 0.00 | 0.00 | 0.00 | 56 | 1010.0 |
| 20260903212542 | 94 | 134 | 5.0 | 13.0 | 0.00 | 0.00 | 0.00 | 56 | 1010.0 |
| 20260903212021 | 94 | 121 | 6.0 | 12.0 | 0.00 | 0.00 | 0.00 | 56 | 1010.0 |
| 20260903211509 | 94 | 138 | 4.0 | 11.0 | 0.00 | 0.00 | 0.00 | 56 | 1010.0 |
| 20260903211050 | 94 | 127 | 4.0 | 12.0 | 0.00 | 0.00 | 0.00 | 56 | 1010.1 |
| 20260903210527 | 94 | 163 | 5.0 | 12.0 | 0.00 | 0.00 | 0.00 | 56 | 1010.1 |
| 20260903210018 | 94 | 169 | 3.0 | 9.0 | 0.00 | 0.00 | 0.00 | 55 | 1010.2 |
| 20260903205559 | 95 | 62 | 3.0 | 11.0 | 0.00 | 0.00 | 0.00 | 55 | 1010.1 |
| 20260903205035 | 95 | 132 | 4.0 | 11.0 | 0.00 | 0.00 | 0.00 | 55 | 1010.2 |
| 20260903204528 | 95 | 93 | 4.0 | 15.0 | 0.00 | 0.00 | 0.00 | 55 | 1010.3 |
| 20260903204003 | 95 | 78 | 5.0 | 15.0 | 0.00 | 0.00 | 0.00 | 55 | 1010.3 |
| 20260903203545 | 95 | 148 | 3.0 | 15.0 | 0.00 | 0.00 | 0.00 | 54 | 1010.3 |
| 20260903203034 | 95 | 131 | 6.0 | 15.0 | 0.00 | 0.00 | 0.00 | 54 | 1010.6 |
| 20260903202511 | 95 | 106 | 5.0 | 12.0 | 0.00 | 0.00 | 0.00 | 55 | 1010.8 |
| 20260903202052 | 95 | 147 | 3.0 | 12.0 | 0.00 | 0.00 | 0.00 | 56 | 1010.9 |
| 20260903201543 | 95 | 132 | 4.0 | 12.0 | 0.00 | 0.00 | 0.00 | 55 | 1011.0 |
| 20260903201019 | 95 | 54 | 3.0 | 10.0 | 0.00 | 0.00 | 0.00 | 56 | 1011.0 |
| 20260903200559 | 95 | 117 | 2.0 | 9.0 | 0.00 | 0.00 | 0.00 | 56 | 1011.0 |
| 20260903200051 | 94 | 134 | 2.0 | 10.0 | 0.00 | 0.00 | 0.00 | 56 | 1011.1 |
| 20260903195526 | 94 | 134 | 2.0 | 10.0 | 0.00 | 0.00 | 0.00 | 55 | 1011.0 |
| 20260903195003 | 93 | 59 | 2.0 | 6.0 | 0.00 | 0.00 | 0.00 | 58 | 1011.0 |
| 20260903194605 | 93 | 123 | 2.0 | 7.0 | 0.00 | 0.00 | 0.00 | 58 | 1011.1 |
| 20260903194035 | 93 | 67 | 2.0 | 8.0 | 0.00 | 0.00 | 0.00 | 59 | 1011.2 |
| 20260903193511 | 92 | 78 | 1.0 | 9.0 | 0.00 | 0.00 | 0.00 | 60 | 1011.2 |
| 20260903193002 | 92 | 89 | 3.0 | 10.0 | 0.00 | 0.00 | 0.00 | 59 | 1011.4 |
| 20260903192545 | 92 | 114 | 3.0 | 10.0 | 0.00 | 0.00 | 0.00 | 58 | 1011.4 |
| 20260903192018 | 92 | 141 | 2.0 | 8.0 | 0.00 | 0.00 | 0.00 | 58 | 1011.5 |
| 20260903191509 | 92 | 126 | 3.0 | 8.0 | 0.00 | 0.00 | 0.00 | 58 | 1011.5 |
| 20260903191051 | 92 | 74 | 2.0 | 7.0 | 0.00 | 0.00 | 0.00 | 59 | 1011.7 |
| 20260903190527 | 92 | 92 | 0.0 | 9.0 | 0.00 | 0.00 | 0.00 | 60 | 1011.8 |
| 20260903190018 | 91 | 118 | 4.0 | 9.0 | 0.00 | 0.00 | 0.00 | 58 | 1012.0 |
| 20260903185559 | 91 | 153 | 1.0 | 9.0 | 0.00 | 0.00 | 0.00 | 60 | 1012.0 |
| 20260903185035 | 91 | 144 | 2.0 | 9.0 | 0.00 | 0.00 | 0.00 | 59 | 1012.1 |
| 20260903184525 | 91 | 152 | 3.0 | 8.0 | 0.00 | 0.00 | 0.00 | 59 | 1012.1 |
| 20260903184005 | 91 | 86 | 1.0 | 7.0 | 0.00 | 0.00 | 0.00 | 60 | 1012.2 |
| 20260903183546 | 91 | 134 | 3.0 | 7.0 | 0.00 | 0.00 | 0.00 | 59 | 1012.3 |
| 20260903183034 | 91 | 87 | 3.0 | 8.0 | 0.00 | 0.00 | 0.00 | 60 | 1012.4 |
| 20260903182511 | 91 | 66 | 3.0 | 8.0 | 0.00 | 0.00 | 0.00 | 61 | 1012.5 |
| 20260903182050 | 91 | 138 | 1.0 | 8.0 | 0.00 | 0.00 | 0.00 | 61 | 1012.4 |
| 20260903181551 | 90 | 80 | 2.0 | 8.0 | 0.00 | 0.00 | 0.00 | 62 | 1012.5 |
| 20260903181020 | 90 | 140 | 3.0 | 8.0 | 0.00 | 0.00 | 0.00 | 61 | 1012.6 |
| 20260903180601 | 90 | 144 | 3.0 | 8.0 | 0.00 | 0.00 | 0.00 | 61 | 1012.6 |
| 20260903180100 | 90 | 123 | 2.0 | 7.0 | 0.00 | 0.00 | 0.00 | 62 | 1012.7 |
| 20260903175529 | 89 | 90 | 2.0 | 9.0 | 0.00 | 0.00 | 0.00 | 63 | 1012.8 |
| 20260903175005 | 89 | 130 | 2.0 | 9.0 | 0.00 | 0.00 | 0.00 | 63 | 1012.9 |
| 20260903174602 | 89 | 98 | 1.0 | 7.0 | 0.00 | 0.00 | 0.00 | 64 | 1013.0 |
| 20260903174040 | 88 | 130 | 2.0 | 5.0 | 0.00 | 0.00 | 0.00 | 64 | 1013.1 |
| 20260903173515 | 88 | 143 | 1.0 | 9.0 | 0.00 | 0.00 | 0.00 | 64 | 1013.1 |
| 20260903173007 | 88 | 147 | 2.0 | 9.0 | 0.00 | 0.00 | 0.00 | 64 | 1013.1 |
| 20260903172546 | 88 | 144 | 2.0 | 8.0 | 0.00 | 0.00 | 0.00 | 65 | 1013.2 |
| 20260903172023 | 88 | 144 | 3.0 | 5.0 | 0.00 | 0.00 | 0.00 | 65 | 1013.3 |
| 20260903171515 | 88 | 72 | 1.0 | 7.0 | 0.00 | 0.00 | 0.00 | 65 | 1013.3 |
| 20260903171057 | 88 | 140 | 2.0 | 7.0 | 0.00 | 0.00 | 0.00 | 65 | 1013.3 |
| 20260903170536 | 88 | 63 | 0.0 | 4.0 | 0.00 | 0.00 | 0.00 | 66 | 1013.4 |
| 20260903170041 | 87 | 108 | 1.0 | 4.0 | 0.00 | 0.00 | 0.00 | 66 | 1013.4 |
| 20260903165504 | 87 | 71 | 2.0 | 4.0 | 0.00 | 0.00 | 0.00 | 67 | 1013.4 |
| 20260903165046 | 87 | 140 | 1.0 | 7.0 | 0.00 | 0.00 | 0.00 | 67 | 1013.4 |
| 20260903164540 | 87 | 128 | 3.0 | 8.0 | 0.00 | 0.00 | 0.00 | 67 | 1013.3 |
| 20260903164017 | 87 | 159 | 3.0 | 9.0 | 0.00 | 0.00 | 0.00 | 67 | 1013.2 |
| 20260903163600 | 87 | 140 | 2.0 | 7.0 | 0.00 | 0.00 | 0.00 | 68 | 1013.2 |
| 20260903163048 | 87 | 164 | 3.0 | 11.0 | 0.00 | 0.00 | 0.00 | 68 | 1013.1 |
| 20260903162526 | 87 | 155 | 6.0 | 11.0 | 0.00 | 0.00 | 0.00 | 68 | 1013.1 |
| 20260903162002 | 87 | 155 | 3.0 | 8.0 | 0.00 | 0.00 | 0.00 | 69 | 1013.0 |
| 20260903161614 | 87 | 171 | 3.0 | 11.0 | 0.00 | 0.00 | 0.00 | 68 | 1013.0 |
| 20260903161034 | 87 | 161 | 3.0 | 9.0 | 0.00 | 0.00 | 0.00 | 68 | 1012.9 |
| 20260903160514 | 86 | 142 | 2.0 | 9.0 | 0.00 | 0.00 | 0.00 | 68 | 1012.9 |
| 20260903160003 | 86 | 150 | 3.0 | 10.0 | 0.00 | 0.00 | 0.00 | 68 | 1013.0 |
| 20260903155543 | 86 | 130 | 4.0 | 11.0 | 0.00 | 0.00 | 0.00 | 69 | 1012.9 |
| 20260903155020 | 86 | 201 | 4.0 | 10.0 | 0.00 | 0.00 | 0.00 | 70 | 1012.8 |
| 20260903154513 | 85 | 133 | 3.0 | 8.0 | 0.00 | 0.00 | 0.00 | 70 | 1012.8 |
| 20260903154053 | 85 | 171 | 3.0 | 14.0 | 0.00 | 0.00 | 0.00 | 70 | 1012.8 |
| 20260903153530 | 85 | 146 | 4.0 | 14.0 | 0.00 | 0.00 | 0.00 | 72 | 1012.8 |
| 20260903153023 | 85 | 194 | 3.0 | 9.0 | 0.00 | 0.00 | 0.00 | 72 | 1012.8 |
| 20260903152604 | 85 | 180 | 3.0 | 9.0 | 0.00 | 0.00 | 0.00 | 73 | 1012.7 |
| 20260903152040 | 84 | 173 | 4.0 | 9.0 | 0.00 | 0.00 | 0.00 | 74 | 1012.7 |
| 20260903151543 | 84 | 157 | 4.0 | 9.0 | 0.00 | 0.00 | 0.00 | 75 | 1012.7 |
| 20260903151010 | 84 | 185 | 4.0 | 9.0 | 0.00 | 0.00 | 0.00 | 76 | 1012.7 |
| 20260903150551 | 84 | 130 | 3.0 | 9.0 | 0.00 | 0.00 | 0.00 | 76 | 1012.8 |
| 20260903150045 | 84 | 174 | 4.0 | 11.0 | 0.00 | 0.00 | 0.00 | 77 | 1012.8 |
| 20260903145520 | 83 | 186 | 4.0 | 11.0 | 0.00 | 0.00 | 0.00 | 77 | 1012.8 |
| 20260903145101 | 83 | 134 | 3.0 | 9.0 | 0.00 | 0.00 | 0.00 | 78 | 1012.8 |
| 20260903144553 | 83 | 196 | 1.0 | 6.0 | 0.00 | 0.00 | 0.00 | 78 | 1012.7 |
| 20260903144030 | 83 | 182 | 1.0 | 6.0 | 0.00 | 0.00 | 0.00 | 79 | 1012.8 |
| 20260903143507 | 83 | 155 | 2.0 | 8.0 | 0.00 | 0.00 | 0.00 | 80 | 1012.9 |
| 20260903143104 | 82 | 134 | 2.0 | 9.0 | 0.00 | 0.00 | 0.00 | 80 | 1012.9 |
| 20260903142542 | 82 | 159 | 4.0 | 9.0 | 0.00 | 0.00 | 0.00 | 80 | 1012.8 |
| 20260903142019 | 82 | 160 | 2.0 | 9.0 | 0.00 | 0.00 | 0.00 | 81 | 1012.8 |
| 20260903141509 | 82 | 138 | 4.0 | 8.0 | 0.00 | 0.00 | 0.00 | 81 | 1012.8 |
| 20260903141054 | 82 | 153 | 2.0 | 9.0 | 0.00 | 0.00 | 0.00 | 82 | 1012.7 |
| 20260903140527 | 82 | 232 | 1.0 | 7.0 | 0.00 | 0.00 | 0.00 | 83 | 1012.8 |
| 20260903140031 | 81 | 196 | 2.0 | 10.0 | 0.00 | 0.00 | 0.00 | 83 | 1012.8 |
| 20260903135601 | 81 | 251 | 2.0 | 10.0 | 0.00 | 0.00 | 0.00 | 84 | 1012.8 |
| 20260903135038 | 81 | 215 | 1.0 | 7.0 | 0.00 | 0.00 | 0.00 | 84 | 1012.8 |
| 20260903134538 | 81 | 199 | 2.0 | 6.0 | 0.00 | 0.00 | 0.00 | 84 | 1012.8 |
| 20260903134007 | 81 | 159 | 3.0 | 8.0 | 0.00 | 0.00 | 0.00 | 84 | 1012.9 |
| 20260903133548 | 81 | 144 | 2.0 | 8.0 | 0.00 | 0.00 | 0.00 | 85 | 1012.9 |
| 20260903133042 | 80 | 212 | 2.0 | 9.0 | 0.00 | 0.00 | 0.00 | 85 | 1012.8 |
| 20260903132518 | 80 | 150 | 3.0 | 10.0 | 0.00 | 0.00 | 0.00 | 85 | 1012.8 |
| 20260903132059 | 80 | 145 | 5.0 | 10.0 | 0.00 | 0.00 | 0.00 | 85 | 1012.9 |
| 20260903131549 | 80 | 143 | 2.0 | 7.0 | 0.00 | 0.00 | 0.00 | 86 | 1012.9 |
| 20260903131026 | 80 | 139 | 1.0 | 8.0 | 0.00 | 0.00 | 0.00 | 86 | 1012.8 |
| 20260903130502 | 80 | 172 | 3.0 | 8.0 | 0.00 | 0.00 | 0.00 | 86 | 1012.8 |
| 20260903125537 | 80 | 167 | 4.0 | 10.0 | 0.00 | 0.00 | 0.00 | 86 | 1012.8 |
| 20260903125013 | 80 | 126 | 3.0 | 8.0 | 0.00 | 0.00 | 0.00 | 86 | 1012.7 |
| 20260903124523 | 80 | 127 | 3.0 | 9.0 | 0.00 | 0.00 | 0.00 | 86 | 1012.6 |
| 20260903124103 | 80 | 139 | 4.0 | 9.0 | 0.00 | 0.00 | 0.00 | 87 | 1012.6 |
| 20260903123541 | 80 | 161 | 2.0 | 7.0 | 0.00 | 0.00 | 0.00 | 87 | 1012.6 |
| 20260903123038 | 80 | 229 | 2.0 | 7.0 | 0.00 | 0.00 | 0.00 | 87 | 1012.6 |
| 20260903122511 | 80 | 192 | 2.0 | 9.0 | 0.00 | 0.00 | 0.00 | 87 | 1012.5 |
| 20260903122052 | 80 | 198 | 2.0 | 9.0 | 0.00 | 0.00 | 0.00 | 87 | 1012.4 |
| 20260903121545 | 80 | 180 | 2.0 | 10.0 | 0.00 | 0.00 | 0.00 | 87 | 1012.4 |
| 20260903121025 | 79 | 139 | 5.0 | 10.0 | 0.00 | 0.00 | 0.00 | 87 | 1012.4 |
| 20260903120607 | 80 | 144 | 4.0 | 11.0 | 0.00 | 0.00 | 0.00 | 87 | 1012.4 |
| 20260903120057 | 80 | 144 | 4.0 | 11.0 | 0.00 | 0.00 | 0.00 | 87 | 1012.4 |
| 20260903115535 | 80 | 165 | 3.0 | 9.0 | 0.00 | 0.00 | 0.00 | 86 | 1012.3 |
| 20260903115010 | 80 | 203 | 4.0 | 8.0 | 0.00 | 0.00 | 0.00 | 86 | 1012.3 |
| 20260903114527 | 80 | 148 | 2.0 | 7.0 | 0.00 | 0.00 | 0.00 | 86 | 1012.2 |
| 20260903114103 | 80 | 192 | 2.0 | 8.0 | 0.00 | 0.00 | 0.00 | 86 | 1012.2 |
| 20260903113539 | 80 | 140 | 4.0 | 11.0 | 0.00 | 0.00 | 0.00 | 86 | 1012.2 |
| 20260903113032 | 80 | 140 | 5.0 | 13.0 | 0.00 | 0.00 | 0.00 | 86 | 1012.3 |
| 20260903112509 | 80 | 147 | 4.0 | 10.0 | 0.00 | 0.00 | 0.00 | 86 | 1012.4 |
| 20260903112051 | 80 | 144 | 3.0 | 10.0 | 0.00 | 0.00 | 0.00 | 87 | 1012.4 |
| 20260903111544 | 79 | 151 | 5.0 | 10.0 | 0.00 | 0.00 | 0.00 | 87 | 1012.4 |
| 20260903111021 | 79 | 136 | 4.0 | 11.0 | 0.00 | 0.00 | 0.00 | 87 | 1012.4 |
| 20260903110603 | 79 | 138 | 3.0 | 11.0 | 0.00 | 0.00 | 0.00 | 87 | 1012.4 |
| 20260903110104 | 79 | 160 | 2.0 | 6.0 | 0.00 | 0.00 | 0.00 | 87 | 1012.4 |
| 20260903105533 | 79 | 130 | 3.0 | 9.0 | 0.00 | 0.00 | 0.00 | 87 | 1012.3 |
| 20260903105009 | 79 | 144 | 2.0 | 8.0 | 0.00 | 0.00 | 0.00 | 87 | 1012.3 |
| 20260903104503 | 79 | 147 | 4.0 | 11.0 | 0.00 | 0.00 | 0.00 | 87 | 1012.2 |
| 20260903104045 | 79 | 126 | 5.0 | 11.0 | 0.00 | 0.00 | 0.00 | 87 | 1012.1 |
| 20260903103520 | 79 | 177 | 2.0 | 11.0 | 0.00 | 0.00 | 0.00 | 86 | 1012.0 |
| 20260903103034 | 79 | 152 | 5.0 | 11.0 | 0.00 | 0.00 | 0.00 | 86 | 1012.0 |
| 20260903102507 | 79 | 165 | 4.0 | 10.0 | 0.00 | 0.00 | 0.00 | 86 | 1012.0 |
| 20260903102049 | 79 | 146 | 3.0 | 9.0 | 0.00 | 0.00 | 0.00 | 86 | 1012.0 |
| 20260903101545 | 80 | 151 | 4.0 | 9.0 | 0.00 | 0.00 | 0.00 | 86 | 1011.9 |
| 20260903101022 | 79 | 150 | 3.0 | 8.0 | 0.00 | 0.00 | 0.00 | 86 | 1012.0 |
| 20260903100601 | 79 | 154 | 3.0 | 8.0 | 0.00 | 0.00 | 0.00 | 86 | 1011.9 |
| 20260903100056 | 79 | 169 | 3.0 | 8.0 | 0.00 | 0.00 | 0.00 | 86 | 1012.0 |
| 20260903095532 | 79 | 146 | 2.0 | 12.0 | 0.00 | 0.00 | 0.00 | 86 | 1012.1 |
| 20260903095009 | 79 | 150 | 4.0 | 10.0 | 0.00 | 0.00 | 0.00 | 86 | 1012.0 |
| 20260903094503 | 79 | 164 | 2.0 | 9.0 | 0.00 | 0.00 | 0.00 | 86 | 1012.0 |
| 20260903094044 | 80 | 151 | 2.0 | 9.0 | 0.00 | 0.00 | 0.00 | 85 | 1012.0 |
| 20260903093521 | 80 | 210 | 3.0 | 8.0 | 0.00 | 0.00 | 0.00 | 85 | 1012.0 |
| 20260903093037 | 80 | 142 | 3.0 | 8.0 | 0.00 | 0.00 | 0.00 | 85 | 1012.0 |
| 20260903092559 | 80 | 146 | 4.0 | 7.0 | 0.00 | 0.00 | 0.00 | 85 | 1012.2 |
| 20260903092033 | 80 | 145 | 3.0 | 11.0 | 0.00 | 0.00 | 0.00 | 85 | 1012.3 |
| 20260903091527 | 80 | 144 | 2.0 | 9.0 | 0.00 | 0.00 | 0.00 | 85 | 1012.3 |
| 20260903091003 | 80 | 130 | 4.0 | 10.0 | 0.00 | 0.00 | 0.00 | 85 | 1012.4 |
| 20260903090545 | 80 | 159 | 3.0 | 9.0 | 0.00 | 0.00 | 0.00 | 84 | 1012.4 |
| 20260903090039 | 80 | 163 | 3.0 | 9.0 | 0.00 | 0.00 | 0.00 | 84 | 1012.4 |
| 20260903085516 | 80 | 157 | 3.0 | 11.0 | 0.00 | 0.00 | 0.00 | 84 | 1012.3 |
| 20260903085056 | 80 | 117 | 4.0 | 11.0 | 0.00 | 0.00 | 0.00 | 84 | 1012.3 |
| 20260903084553 | 80 | 140 | 4.0 | 11.0 | 0.00 | 0.00 | 0.00 | 84 | 1012.3 |
| 20260903084028 | 80 | 134 | 5.0 | 10.0 | 0.00 | 0.00 | 0.00 | 83 | 1012.3 |
| 20260903083504 | 80 | 187 | 3.0 | 9.0 | 0.00 | 0.00 | 0.00 | 83 | 1012.3 |
| 20260903083105 | 80 | 188 | 3.0 | 9.0 | 0.00 | 0.00 | 0.00 | 82 | 1012.3 |
| 20260903082540 | 80 | 151 | 4.0 | 9.0 | 0.00 | 0.00 | 0.00 | 82 | 1012.4 |
| 20260903082017 | 80 | 150 | 3.0 | 9.0 | 0.00 | 0.00 | 0.00 | 82 | 1012.3 |
| 20260903081514 | 80 | 136 | 4.0 | 9.0 | 0.00 | 0.00 | 0.00 | 82 | 1012.3 |
| 20260903081052 | 80 | 132 | 3.0 | 9.0 | 0.00 | 0.00 | 0.00 | 81 | 1012.4 |
| 20260903080525 | 80 | 142 | 5.0 | 9.0 | 0.00 | 0.00 | 0.00 | 81 | 1012.3 |
| 20260903080038 | 81 | 159 | 3.0 | 7.0 | 0.00 | 0.00 | 0.00 | 80 | 1012.4 |
| 20260903075515 | 81 | 143 | 3.0 | 9.0 | 0.00 | 0.00 | 0.00 | 80 | 1012.3 |
| 20260903075055 | 81 | 138 | 4.0 | 10.0 | 0.00 | 0.00 | 0.00 | 80 | 1012.3 |
| 20260903074508 | 81 | 169 | 4.0 | 10.0 | 0.00 | 0.00 | 0.00 | 79 | 1012.4 |
| 20260903074045 | 81 | 178 | 3.0 | 9.0 | 0.00 | 0.00 | 0.00 | 79 | 1012.4 |
| 20260903073523 | 80 | 147 | 5.0 | 9.0 | 0.00 | 0.00 | 0.00 | 79 | 1012.4 |
| 20260903073017 | 80 | 197 | 3.0 | 5.0 | 0.00 | 0.00 | 0.00 | 79 | 1012.3 |
| 20260903072557 | 80 | 182 | 3.0 | 7.0 | 0.00 | 0.00 | 0.00 | 79 | 1012.4 |
| 20260903072036 | 80 | 150 | 2.0 | 7.0 | 0.00 | 0.00 | 0.00 | 79 | 1012.4 |
| 20260903071530 | 80 | 148 | 2.0 | 8.0 | 0.00 | 0.00 | 0.00 | 79 | 1012.5 |
| 20260903071005 | 80 | 173 | 3.0 | 8.0 | 0.00 | 0.00 | 0.00 | 79 | 1012.6 |
| 20260903070548 | 80 | 159 | 3.0 | 5.0 | 0.00 | 0.00 | 0.00 | 79 | 1012.6 |
| 20260903070100 | 80 | 155 | 3.0 | 7.0 | 0.00 | 0.00 | 0.00 | 80 | 1012.6 |
| 20260903065536 | 80 | 161 | 3.0 | 7.0 | 0.00 | 0.00 | 0.00 | 80 | 1012.6 |
| 20260903065012 | 80 | 137 | 2.0 | 7.0 | 0.00 | 0.00 | 0.00 | 80 | 1012.6 |
| 20260903064508 | 80 | 148 | 3.0 | 7.0 | 0.00 | 0.00 | 0.00 | 80 | 1012.6 |
| 20260903064049 | 80 | 142 | 3.0 | 7.0 | 0.00 | 0.00 | 0.00 | 80 | 1012.7 |
| 20260903063526 | 80 | 162 | 3.0 | 7.0 | 0.00 | 0.00 | 0.00 | 80 | 1012.8 |
| 20260903063021 | 80 | 155 | 1.0 | 6.0 | 0.00 | 0.00 | 0.00 | 80 | 1012.8 |
| 20260903062603 | 80 | 155 | 2.0 | 9.0 | 0.00 | 0.00 | 0.00 | 80 | 1012.9 |
| 20260903062038 | 80 | 161 | 3.0 | 9.0 | 0.00 | 0.00 | 0.00 | 81 | 1012.9 |
| 20260903061534 | 80 | 152 | 2.0 | 9.0 | 0.00 | 0.00 | 0.00 | 81 | 1012.8 |
| 20260903061013 | 80 | 151 | 3.0 | 9.0 | 0.00 | 0.00 | 0.00 | 81 | 1012.9 |
| 20260903060552 | 80 | 142 | 2.0 | 5.0 | 0.00 | 0.00 | 0.00 | 81 | 1012.8 |
| 20260903060003 | 80 | 140 | 2.0 | 5.0 | 0.00 | 0.00 | 0.00 | 80 | 1012.9 |
| 20260903055543 | 80 | 142 | 1.0 | 5.0 | 0.00 | 0.00 | 0.00 | 80 | 1012.9 |
| 20260903055022 | 80 | 150 | 2.0 | 6.0 | 0.00 | 0.00 | 0.00 | 80 | 1012.9 |
| 20260903054522 | 80 | 155 | 2.0 | 6.0 | 0.00 | 0.00 | 0.00 | 80 | 1013.0 |
| 20260903054056 | 80 | 137 | 1.0 | 8.0 | 0.00 | 0.00 | 0.00 | 79 | 1013.0 |
| 20260903053533 | 81 | 134 | 4.0 | 10.0 | 0.00 | 0.00 | 0.00 | 79 | 1013.0 |
| 20260903053028 | 81 | 149 | 4.0 | 10.0 | 0.00 | 0.00 | 0.00 | 78 | 1012.9 |
| 20260903052505 | 81 | 132 | 4.0 | 9.0 | 0.00 | 0.00 | 0.00 | 77 | 1013.0 |
| 20260903052046 | 81 | 133 | 2.0 | 11.0 | 0.00 | 0.00 | 0.00 | 77 | 1013.0 |
| 20260903051542 | 81 | 128 | 7.0 | 11.0 | 0.00 | 0.00 | 0.00 | 76 | 1012.9 |
| 20260903051020 | 82 | 134 | 3.0 | 9.0 | 0.00 | 0.00 | 0.00 | 75 | 1012.9 |
| 20260903050559 | 82 | 169 | 4.0 | 11.0 | 0.00 | 0.00 | 0.00 | 75 | 1012.8 |
| 20260903050009 | 82 | 161 | 5.0 | 11.0 | 0.00 | 0.00 | 0.00 | 74 | 1012.8 |
| 20260903045550 | 82 | 145 | 4.0 | 9.0 | 0.00 | 0.00 | 0.00 | 73 | 1012.8 |
| 20260903045026 | 82 | 129 | 4.0 | 9.0 | 0.00 | 0.00 | 0.00 | 73 | 1012.7 |
| 20260903044541 | 82 | 140 | 3.0 | 7.0 | 0.00 | 0.00 | 0.00 | 73 | 1012.7 |
| 20260903044017 | 82 | 138 | 3.0 | 8.0 | 0.00 | 0.00 | 0.00 | 72 | 1012.7 |
| 20260903043559 | 82 | 148 | 1.0 | 8.0 | 0.00 | 0.00 | 0.00 | 71 | 1012.7 |
| 20260903043054 | 83 | 71 | 1.0 | 5.0 | 0.00 | 0.00 | 0.00 | 71 | 1012.7 |
| 20260903042530 | 83 | 125 | 1.0 | 5.0 | 0.00 | 0.00 | 0.00 | 70 | 1012.7 |
| 20260903042007 | 83 | 136 | 1.0 | 9.0 | 0.00 | 0.00 | 0.00 | 70 | 1012.7 |
| 20260903041524 | 83 | 135 | 2.0 | 13.0 | 0.00 | 0.00 | 0.00 | 70 | 1012.7 |
| 20260903041002 | 83 | 131 | 3.0 | 13.0 | 0.00 | 0.00 | 0.00 | 70 | 1012.8 |
| 20260903040542 | 83 | 98 | 2.0 | 11.0 | 0.00 | 0.00 | 0.00 | 70 | 1012.9 |
| 20260903040100 | 83 | 126 | 6.0 | 10.0 | 0.00 | 0.00 | 0.00 | 70 | 1012.9 |
| 20260903035535 | 84 | 140 | 4.0 | 8.0 | 0.00 | 0.00 | 0.00 | 70 | 1012.9 |
| 20260903035012 | 84 | 137 | 2.0 | 11.0 | 0.00 | 0.00 | 0.00 | 71 | 1012.8 |
| 20260903034510 | 84 | 130 | 4.0 | 11.0 | 0.00 | 0.00 | 0.00 | 70 | 1012.8 |
| 20260903034049 | 84 | 131 | 3.0 | 10.0 | 0.00 | 0.00 | 0.00 | 70 | 1012.8 |
| 20260903033525 | 85 | 76 | 4.0 | 10.0 | 0.00 | 0.00 | 0.00 | 69 | 1012.9 |
| 20260903033039 | 85 | 67 | 3.0 | 8.0 | 0.00 | 0.00 | 0.00 | 68 | 1012.7 |
| 20260903032508 | 85 | 90 | 2.0 | 8.0 | 0.00 | 0.00 | 0.00 | 67 | 1012.8 |
| 20260903032053 | 86 | 63 | 3.0 | 8.0 | 0.00 | 0.00 | 0.00 | 66 | 1012.7 |
| 20260903031556 | 86 | 76 | 1.0 | 8.0 | 0.00 | 0.00 | 0.00 | 65 | 1012.5 |
| 20260903031037 | 86 | 67 | 3.0 | 8.0 | 0.00 | 0.00 | 0.00 | 63 | 1012.4 |
| 20260903030515 | 87 | 76 | 2.0 | 8.0 | 0.00 | 0.00 | 0.00 | 61 | 1012.3 |
| 20260903030029 | 87 | 84 | 1.0 | 10.0 | 0.00 | 0.00 | 0.00 | 60 | 1012.2 |
| 20260903025504 | 87 | 130 | 4.0 | 11.0 | 0.00 | 0.00 | 0.00 | 60 | 1012.1 |
| 20260903025044 | 87 | 131 | 3.0 | 11.0 | 0.00 | 0.00 | 0.00 | 60 | 1012.0 |
| 20260903024555 | 87 | 135 | 3.0 | 9.0 | 0.00 | 0.00 | 0.00 | 60 | 1012.0 |
| 20260903024032 | 86 | 46 | 2.0 | 8.0 | 0.00 | 0.00 | 0.00 | 60 | 1011.9 |
| 20260903023508 | 86 | 146 | 1.0 | 3.0 | 0.00 | 0.00 | 0.00 | 60 | 1011.7 |
| 20260903023020 | 86 | 146 | 0.0 | 1.0 | 0.00 | 0.00 | 0.00 | 60 | 1011.5 |
| 20260903022600 | 87 | 146 | 0.0 | 1.0 | 0.00 | 0.00 | 0.00 | 60 | 1011.3 |
| 20260903022039 | 87 | 146 | 0.0 | 0.0 | 0.00 | 0.00 | 0.00 | 58 | 1011.2 |
| 20260903021548 | 87 | 146 | 0.0 | 0.0 | 0.00 | 0.00 | 0.00 | 58 | 1011.0 |
| 20260903021026 | 87 | 146 | 0.0 | 2.0 | 0.00 | 0.00 | 0.00 | 58 | 1011.0 |
| 20260903020605 | 87 | 146 | 0.0 | 2.0 | 0.00 | 0.00 | 0.00 | 59 | 1010.9 |
| 20260903020011 | 88 | 146 | 0.0 | 0.0 | 0.00 | 0.00 | 0.00 | 58 | 1010.9 |
| 20260903015553 | 88 | 146 | 0.0 | 2.0 | 0.00 | 0.00 | 0.00 | 57 | 1010.9 |
| 20260903015029 | 88 | 146 | 0.0 | 2.0 | 0.00 | 0.00 | 0.00 | 56 | 1010.8 |
| 20260903014552 | 89 | 146 | 0.0 | 0.0 | 0.00 | 0.00 | 0.00 | 57 | 1010.7 |
| 20260903014018 | 89 | 146 | 0.0 | 0.0 | 0.00 | 0.00 | 0.00 | 56 | 1010.7 |
| 20260903013558 | 89 | 146 | 0.0 | 0.0 | 0.00 | 0.00 | 0.00 | 56 | 1010.6 |
| 20260903013007 | 90 | 146 | 0.0 | 0.0 | 0.00 | 0.00 | 0.00 | 55 | 1010.6 |
| 20260903012547 | 90 | 146 | 0.0 | 1.0 | 0.00 | 0.00 | 0.00 | 55 | 1010.6 |
| 20260903012025 | 91 | 146 | 0.0 | 1.0 | 0.00 | 0.00 | 0.00 | 54 | 1010.6 |
| 20260903011536 | 91 | 146 | 0.0 | 1.0 | 0.00 | 0.00 | 0.00 | 54 | 1010.6 |
| 20260903011012 | 92 | 146 | 0.0 | 3.0 | 0.00 | 0.00 | 0.00 | 51 | 1010.7 |
| 20260903010553 | 92 | 146 | 1.0 | 3.0 | 0.00 | 0.00 | 0.00 | 50 | 1010.7 |
| 20260903010105 | 93 | 146 | 0.0 | 0.0 | 0.00 | 0.00 | 0.00 | 50 | 1010.5 |
| 20260903005544 | 93 | 146 | 0.0 | 0.0 | 0.00 | 0.00 | 0.00 | 48 | 1010.5 |
| 20260903005018 | 94 | 146 | 0.0 | 0.0 | 0.00 | 0.00 | 0.00 | 48 | 1010.5 |
| 20260903004536 | 94 | 146 | 0.0 | 0.0 | 0.00 | 0.00 | 0.00 | 47 | 1010.6 |
| 20260903004008 | 94 | 146 | 0.0 | 1.0 | 0.00 | 0.00 | 0.00 | 48 | 1010.6 |
| 20260903003547 | 94 | 146 | 0.0 | 1.0 | 0.00 | 0.00 | 0.00 | 47 | 1010.6 |
| 20260903003058 | 95 | 146 | 0.0 | 1.0 | 0.00 | 0.00 | 0.00 | 48 | 1010.6 |
| 20260903002535 | 95 | 146 | 0.0 | 1.0 | 0.00 | 0.00 | 0.00 | 47 | 1010.6 |
| 20260903002014 | 95 | 146 | 0.0 | 2.0 | 0.00 | 0.00 | 0.00 | 46 | 1010.5 |
| 20260903001521 | 95 | 146 | 0.0 | 3.0 | 0.00 | 0.00 | 0.00 | 46 | 1010.5 |
| 20260903001103 | 95 | 146 | 1.0 | 3.0 | 0.00 | 0.00 | 0.00 | 45 | 1010.5 |
| 20260903000540 | 95 | 146 | 1.0 | 3.0 | 0.00 | 0.00 | 0.00 | 44 | 1010.5 |
| 20260903000051 | 96 | 146 | 1.0 | 3.0 | 0.00 | 0.00 | 0.00 | 44 | 1010.5 |
| 20260902235527 | 96 | 146 | 0.0 | 3.0 | 0.00 | 0.00 | 0.00 | 45 | 1010.5 |
| 20260902235004 | 96 | 146 | 1.0 | 4.0 | 0.00 | 0.00 | 0.00 | 44 | 1010.5 |
| 20260902234516 | 96 | 146 | 2.0 | 4.0 | 0.00 | 0.00 | 0.00 | 43 | 1010.5 |
| 20260902234056 | 96 | 146 | 1.0 | 4.0 | 0.00 | 0.00 | 0.00 | 43 | 1010.5 |
| 20260902233533 | 97 | 146 | 1.0 | 5.0 | 0.00 | 0.00 | 0.00 | 43 | 1010.5 |
| 20260902233045 | 97 | 147 | 0.0 | 5.0 | 0.00 | 0.00 | 0.00 | 42 | 1010.6 |
| 20260902232524 | 97 | 210 | 1.0 | 5.0 | 0.00 | 0.00 | 0.00 | 42 | 1010.6 |
| 20260902232103 | 97 | 199 | 0.0 | 5.0 | 0.00 | 0.00 | 0.00 | 43 | 1010.6 |
| 20260902231515 | 97 | 138 | 1.0 | 5.0 | 0.00 | 0.00 | 0.00 | 43 | 1010.6 |
| 20260902231054 | 98 | 174 | 1.0 | 7.0 | 0.00 | 0.00 | 0.00 | 43 | 1010.6 |